Flint, MI

3:59 PM EST on November 16, 2019 (GMT -0500)
Bishop International

Weather History for KFNT - October, 2019

Change the Weather History Date:

Wednesday, October 23, 2019

  Actual Average Record
Temperature  
Mean Temperature 51 °F 47 °F  
Max Temperature 59 °F 57 °F 83 °F (1963)
Min Temperature 42 °F 38 °F 23 °F (1969)
Degree Days  
Heating Degree Days 14 18  
Month to date heating degree days 260 332  
Since 1 July heating degree days 313 542  
Cooling Degree Days 0 0  
Month to date cooling degree days 8 2  
Year to date cooling degree days 717 528  
Growing Degree Days 1 (Base 50)    
Moisture  
Dew Point 35 °F    
Average Humidity 54    
Maximum Humidity 71    
Minimum Humidity 36    
Precipitation  
Precipitation T in 0.07 in 1.85 in (1951)
Month to date precipitation 3.30 1.87  
Year to date precipitation 30.00 26.18  
Snow  
Snow 0.00 in 0.10 in 0.80 in (1962)
Month to date snowfall 0.0 0.3  
Since 1 July snowfall 0.0 0.3  
Since 1 September snowfall 0.0 0.3  
Snow Depth 0.00 in    
Sea Level Pressure  
Sea Level Pressure 29.89 in    
Wind  
Wind Speed 11 mph (SW)    
Max Wind Speed 24 mph    
Max Gust Speed 33 mph    
Visibility 10 miles    
Events Rain    
T = Trace of Precipitation, MM = Missing Value Source: NWS Daily Summary

Daily Weather History Graph

Daily Weather History Graph

Search for Another Location

Airport or City:

Astronomy

Oct. 23, 2019 Rise Set
Actual Time 7:57 AM EDT 6:40 PM EDT
Civil Twilight 7:28 AM EDT 7:08 PM EDT
Nautical Twilight 6:55 AM EDT 7:42 PM EDT
Astronomical Twilight 6:22 AM EDT 8:14 PM EDT
Moon 2:04 AM EDT (10/23) 4:39 PM EDT (10/23)
Length of Visible Light 11h 40m
Length of Day
10h 42m
Waning Crescent, 27% of the Moon is Illuminated
Oct 23
Waning Crescent
Oct 27
New
Nov 4
First Quarter
Nov 12
Full
Nov 19
Last Quarter

Hourly Weather History & Observations

Time (EDT) Temp. Windchill Dew Point Humidity Pressure Visibility Wind Dir Wind Speed Gust Speed Precip Events Conditions
12:53 AM 48.0 °F - 36.0 °F 63% 29.73 in 10.0 mi SW 9.2 mph - N/A   Scattered Clouds
1:53 AM 48.0 °F - 37.0 °F 66% 29.74 in 10.0 mi SW 10.4 mph - N/A   Overcast
2:53 AM 46.0 °F 41.4 °F 37.0 °F 71% 29.75 in 10.0 mi SW 9.2 mph - N/A   Clear
3:53 AM 46.0 °F 40.6 °F 36.0 °F 68% 29.75 in 10.0 mi SSW 11.5 mph - N/A   Clear
4:53 AM 46.0 °F 41.0 °F 36.0 °F 68% 29.77 in 10.0 mi SSW 10.4 mph - N/A   Clear
5:53 AM 45.0 °F 39.7 °F 35.1 °F 68% 29.79 in 10.0 mi SW 10.4 mph - N/A   Clear
6:53 AM 44.1 °F 38.6 °F 34.0 °F 68% 29.81 in 10.0 mi SW 10.4 mph - N/A   Clear
7:53 AM 44.1 °F 37.7 °F 34.0 °F 68% 29.83 in 10.0 mi SW 12.7 mph - N/A   Clear
8:53 AM 44.1 °F 38.1 °F 34.0 °F 68% 29.87 in 10.0 mi SW 11.5 mph - N/A   Clear
9:53 AM 48.0 °F - 34.0 °F 58% 29.89 in 10.0 mi WSW 11.5 mph 23.0 mph N/A   Clear
10:53 AM 50.0 °F - 35.1 °F 57% 29.91 in 10.0 mi WSW 16.1 mph 25.3 mph N/A   Clear
11:53 AM 54.0 °F - 34.0 °F 47% 29.91 in 10.0 mi WSW 12.7 mph 24.2 mph N/A   Clear
12:53 PM 55.0 °F - 30.0 °F 38% 29.92 in 10.0 mi SW 21.9 mph 33.4 mph N/A   Clear
1:53 PM 57.0 °F - 30.9 °F 37% 29.93 in 10.0 mi WSW 21.9 mph 33.4 mph N/A   Clear
2:53 PM 57.9 °F - 34.0 °F 41% 29.93 in 10.0 mi SW 18.4 mph 27.6 mph N/A   Clear
3:53 PM 59.0 °F - 33.1 °F 38% 29.94 in 10.0 mi SW 19.6 mph 25.3 mph N/A   Clear
4:53 PM 59.0 °F - 33.1 °F 38% 29.94 in 10.0 mi West 15.0 mph 20.7 mph N/A   Clear
5:53 PM 57.0 °F - 33.1 °F 40% 29.95 in 10.0 mi WSW 12.7 mph - N/A   Clear
6:53 PM 54.0 °F - 34.0 °F 47% 29.98 in 10.0 mi WSW 8.1 mph - N/A   Partly Cloudy
7:53 PM 53.1 °F - 33.1 °F 47% 30.00 in 10.0 mi SSW 3.5 mph - N/A   Clear
8:53 PM 46.9 °F - 35.1 °F 63% 30.01 in 10.0 mi South 5.8 mph - N/A   Clear
9:53 PM 46.0 °F - 36.0 °F 68% 30.01 in 10.0 mi Calm Calm - N/A   Mostly Cloudy
10:53 PM 48.0 °F - 39.0 °F 71% 30.02 in 10.0 mi Calm Calm - 0.00 in Rain Light Rain
11:53 PM 48.0 °F - 41.0 °F 77% 30.01 in 10.0 mi South 6.9 mph - 0.00 in   Overcast